EBLG

Liège

Airport
ICAO code
EBLG
Summary
ICAO Region
EUR
ICAO Territory
Location

Liège,

Elevation
659 ft
Coordinates
50° 38' 15" N , 5° 26' 36" E
KCC
Metar
EBLG 222320Z 25019KT 9999 SCT026 BKN034 04/02 Q0991 TEMPO 22020G33KT

Description

Liège Airport, also called Liège-Bierset, is a cargo airport in Belgium.

Climatology

Temperate Marine climate/Oceanic climate (Köppen climate classification Cfb) - Moderately cool summer and comparatively warm winter.

Runways

Designator Length Width Surface Rops
05L/23R 2340 45 ASP Yes/Yes
05R/23L 3287 45 ASP Yes/Yes

Airport map

Aerial View

SKYbrary Partners:

Safety knowledge contributed by: